Douglas, WY

6:19 AM MDT on July 29, 2017 (GMT -0600)
Converse County

Weather History for KDGW - November, 2011

Change the Weather History Date:

Monday, November 21, 2011

  Actual Average Record
Temperature  
Mean Temperature 36 °F 30 °F  
Max Temperature 50 °F 44 °F 63 °F (2012)
Min Temperature 22 °F 17 °F -7 °F (2015)
Degree Days  
Heating Degree Days 29 35  
Month to date heating degree days 720 625  
Since 1 July heating degree days 1406 1492  
Cooling Degree Days 0 0  
Month to date cooling degree days 0 0  
Year to date cooling degree days 641 486  
Moisture  
Dew Point 26 °F    
Average Humidity 69    
Maximum Humidity 88    
Minimum Humidity 50    
Precipitation  
Precipitation 0.00 in 0.02 in 0.10 in (2010)
Month to date precipitation 0.22 0.49  
Year to date precipitation 12.89 12.83  
Sea Level Pressure  
Sea Level Pressure 30.02 in    
Wind  
Wind Speed 5 mph (SSW)    
Max Wind Speed 18 mph    
Max Gust Speed 29 mph    
Visibility 10 miles    
Events      
T = Trace of Precipitation, MM = Missing Value Source: NWS Daily Summary

Daily Weather History Graph

Daily Weather History Graph

Search for Another Location

Airport or City:

Trip Planner

Search our weather history database for the weather conditions in past years. The results will help you decide how hot, cold, wet, or windy it might be!

Date:

Astronomy

Nov. 21, 2011 Rise Set
Actual Time 7:00 AM MST 4:33 PM MST
Civil Twilight 6:29 AM MST 5:04 PM MST
Nautical Twilight 5:55 AM MST 5:39 PM MST
Astronomical Twilight 5:21 AM MST 6:12 PM MST
Moon 2:37 AM MST (11/21) 2:01 PM MST (11/21)
Length of Visible Light 10h 34m
Length of Day
9h 33m
Waning Crescent, 17% of the Moon is Illuminated
Nov 21
Waning Crescent
Nov 24
New
Dec 2
First Quarter
Dec 10
Full
Dec 17
Last Quarter

Hourly Weather History & Observations

Time (MST) Temp. Windchill Dew Point Humidity Pressure Visibility Wind Dir Wind Speed Gust Speed Precip Events Conditions
12:53 AM 30.9 °F 27.5 °F 24.1 °F 76% 30.04 in 10.0 mi SE 3.5 mph - N/A   Clear
1:53 AM 27.0 °F 21.6 °F 21.9 °F 81% 30.06 in 10.0 mi South 4.6 mph - N/A   Clear
2:53 AM 25.0 °F - 21.0 °F 85% 30.07 in 10.0 mi Calm Calm - N/A   Clear
3:53 AM 24.1 °F 18.2 °F 19.9 °F 84% 30.06 in 10.0 mi South 4.6 mph - N/A   Clear
4:53 AM 28.0 °F 22.8 °F 21.0 °F 75% 30.07 in 10.0 mi Variable 4.6 mph - N/A   Clear
5:53 AM 28.9 °F 21.1 °F 21.0 °F 72% 30.08 in 10.0 mi South 8.1 mph - N/A   Clear
6:53 AM 27.0 °F 20.5 °F 19.9 °F 75% 30.09 in 10.0 mi SSE 5.8 mph - N/A   Clear
7:53 AM 28.9 °F 21.9 °F 23.0 °F 78% 30.06 in 10.0 mi SSW 6.9 mph - N/A   Clear
8:53 AM 30.0 °F 26.5 °F 25.0 °F 82% 30.06 in 10.0 mi SSE 3.5 mph - N/A   Clear
9:53 AM 37.0 °F - 27.0 °F 67% 30.04 in 10.0 mi Calm Calm - N/A   Clear
10:53 AM 44.1 °F - 28.0 °F 53% 29.99 in 10.0 mi Calm Calm - N/A   Clear
11:53 AM 48.0 °F - 30.9 °F 52% 29.97 in 10.0 mi SE 6.9 mph - N/A   Clear
12:53 PM 48.9 °F - 30.9 °F 50% 29.95 in 10.0 mi WSW 10.4 mph - N/A   Partly Cloudy
1:53 PM 48.9 °F - 30.0 °F 48% 29.95 in 10.0 mi SW 8.1 mph - N/A   Clear
2:53 PM 48.9 °F - 30.9 °F 50% 29.96 in 10.0 mi Calm Calm - N/A   Partly Cloudy
3:53 PM 46.0 °F 43.9 °F 32.0 °F 58% 29.98 in 10.0 mi WNW 4.6 mph - N/A   Partly Cloudy
4:53 PM 43.0 °F 37.2 °F 30.9 °F 62% 29.99 in 10.0 mi WSW 10.4 mph - N/A   Partly Cloudy
5:53 PM 39.0 °F 34.8 °F 28.9 °F 67% 30.00 in 10.0 mi SSW 5.8 mph - N/A   Clear
7:53 PM 34.0 °F 29.8 °F 25.0 °F 70% 30.04 in 10.0 mi West 4.6 mph - N/A   Clear
8:53 PM 39.0 °F - 24.1 °F 55% 30.03 in 10.0 mi Calm Calm - N/A   Clear
9:53 PM 37.9 °F 32.7 °F 24.1 °F 57% 30.03 in 10.0 mi North 6.9 mph - N/A   Clear
10:53 PM 37.0 °F 32.4 °F 26.1 °F 65% 30.02 in 10.0 mi WNW 5.8 mph - N/A   Clear